WARR

Surabaya/Juanda International Airport

Airport
ICAO code
WARR
IATA Code
SUB
Summary
ICAO Region
APAC
ICAO Territory
Location

Sidoarjo, Jawa Timur

Serving
Surabaya
Elevation
9 ft
Coordinates
7° 22' 47" S , 112° 47' 13" E
KCC
Metar
Observation
WARR 272130Z 24007KT 7000 FEW020 24/23 Q1005 NOSIG
Station
JUANDA
Date/Time
2023-01-27 21:30:00
Wind direction
240°
Wind speed
07 kts
Lowest cloud amount
few clouds
Temperature
24°C
Dew point
23°C
Humidity
94%
QNH
1005 hPa
Weather condition
n/a

Juanda International Airport is an airport located in Sidoarjo, a small town near Surabaya, East Java. This airport serves Surabaya and surrounding areas.

Climatology

Tropical Savanna climate (Köppen climate classification Aw) - monthly mean temperature above 18°C in every month of the year and a pronounced dry season.

Airport map

Aerial View

Airport accidents

SKYbrary Partners:

Safety knowledge contributed by: